FW8908 Weather Reports


Display with metric or nautical units.
time (UTC)temp
F
wind
direction
speed
MPH
gust
MPH
rain 1hr
in
rain 24hr
in
rain mn
in
humidity
%
barometer
mb
20210922160556 84 277 2.0 7.0 0.00 0.00 0.00 77 1014.7
20210922160156 84 4 2.0 7.0 0.00 0.00 0.00 75 1014.6
20210922155546 85 41 2.0 6.0 0.00 0.00 0.00 74 1014.6
20210922155046 85 121 1.0 6.0 0.00 0.00 0.00 77 1014.6
20210922154616 84 55 1.0 6.0 0.00 0.00 0.00 77 1014.6
20210922154046 84 287 1.0 4.0 0.00 0.00 0.00 77 1014.8
20210922153545 84 13 1.0 4.0 0.00 0.00 0.00 76 1014.8
20210922153108 84 109 1.0 6.0 0.00 0.00 0.00 76 1014.6
20210922152546 84 200 2.0 6.0 0.00 0.00 0.00 75 1014.7
20210922152044 84 59 1.0 5.0 0.00 0.00 0.00 75 1014.7
20210922151807 84 265 2.0 5.0 0.00 0.00 0.00 76 1014.7
20210922151048 84 264 1.0 4.0 0.00 0.00 0.00 75 1014.7
20210922150547 84 354 1.0 3.0 0.00 0.00 0.00 75 1014.7
20210922150140 83 1 1.0 3.0 0.00 0.00 0.00 77 1014.7
20210922145607 83 355 0.0 3.0 0.00 0.00 0.00 77 1014.7
20210922145047 82 324 0.0 4.0 0.00 0.00 0.00 80 1014.7
20210922144627 82 89 1.0 4.0 0.00 0.00 0.00 79 1014.8
20210922144048 82 0 1.0 4.0 0.00 0.00 0.00 79 1014.7
20210922143544 81 8 1.0 4.0 0.00 0.00 0.00 81 1014.7
20210922143117 81 243 0.0 2.0 0.00 0.00 0.00 82 1014.7
20210922142555 80 276 0.0 1.0 0.00 0.00 0.00 84 1014.7
20210922142047 80 313 0.0 2.0 0.00 0.00 0.00 85 1014.6
20210922141626 79 0 0.0 3.0 0.00 0.00 0.00 85 1014.6
20210922141056 79 249 1.0 4.0 0.00 0.00 0.00 86 1014.5
20210922140547 79 290 1.0 4.0 0.00 0.00 0.00 86 1014.4
20210922140206 78 356 0.0 4.0 0.00 0.00 0.00 87 1014.5
20210922135559 78 230 0.0 4.0 0.00 0.00 0.00 87 1014.4
20210922135046 78 347 1.0 3.0 0.00 0.00 0.00 88 1014.4
20210922134710 77 342 0.0 3.0 0.00 0.00 0.00 89 1014.3
20210922134044 77 5 1.0 5.0 0.00 0.00 0.00 90 1014.4
20210922133545 77 0 1.0 5.0 0.00 0.00 0.00 92 1014.5
20210922133054 76 349 0.0 3.0 0.00 0.00 0.00 93 1014.4
20210922132606 76 0 0.0 4.0 0.00 0.00 0.00 94 1014.4
20210922132045 75 311 0.0 4.0 0.00 0.00 0.00 94 1014.5
20210922131635 75 247 0.0 2.0 0.00 0.00 0.00 95 1014.6
20210922131049 75 0 0.0 2.0 0.00 0.00 0.00 96 1014.5
20210922130547 74 0 0.0 2.0 0.00 0.00 0.00 97 1014.5
20210922130158 74 283 0.0 1.0 0.00 0.00 0.00 99 1014.5
20210922125545 74 0 0.0 1.0 0.00 0.00 0.00 99 1014.5
20210922125056 73 0 0.0 1.0 0.00 0.00 0.00 99 1014.4
20210922124655 73 0 0.0 1.0 0.00 0.00 0.00 99 1014.3
20210922124100 73 0 0.0 1.0 0.00 0.00 0.00 100 1014.3
20210922123545 73 0 0.0 2.0 0.00 0.00 0.00 100 1014.2
20210922123207 73 0 0.0 2.0 0.00 0.00 0.00 99 1014.2
20210922122545 73 0 0.0 0.0 0.00 0.00 0.00 99 1014.4
20210922122055 73 0 0.0 0.0 0.00 0.00 0.00 99 1014.3
20210922121728 73 0 0.0 1.0 0.00 0.00 0.00 99 1014.1
20210922121112 72 0 0.0 1.0 0.00 0.00 0.00 99 1014.2
20210922120552 72 0 0.0 0.0 0.00 0.00 0.00 100 1014.3
20210922120115 72 0 0.0 1.0 0.00 0.00 0.00 99 1014.3
20210922115549 72 0 0.0 1.0 0.00 0.00 0.00 100 1014.2
20210922115046 72 0 0.0 1.0 0.00 0.00 0.00 100 1014.3
20210922114630 72 0 0.0 0.0 0.00 0.00 0.00 99 1014.1
20210922114045 72 0 0.0 0.0 0.00 0.00 0.00 99 1014.0
20210922113607 72 0 0.0 0.0 0.00 0.00 0.00 99 1014.0
20210922113132 72 0 0.0 0.0 0.00 0.00 0.00 99 1013.9
20210922112557 72 0 0.0 0.0 0.00 0.00 0.00 99 1013.8
20210922112046 72 0 0.0 0.0 0.00 0.00 0.00 99 1013.8
20210922111724 72 0 0.0 0.0 0.00 0.00 0.00 99 1013.8
20210922111101 72 0 0.0 1.0 0.00 0.00 0.00 99 1013.7
20210922110543 73 0 0.0 1.0 0.00 0.00 0.00 99 1013.7
20210922110229 72 0 0.0 1.0 0.00 0.00 0.00 99 1013.7
20210922105545 72 0 0.0 1.0 0.00 0.00 0.00 99 1013.7
20210922105106 72 0 0.0 1.0 0.00 0.00 0.00 99 1013.7
20210922104609 72 0 0.0 1.0 0.00 0.00 0.00 99 1013.8
20210922104046 73 285 0.0 1.0 0.00 0.00 0.00 99 1013.7
20210922103554 73 0 0.0 0.0 0.00 0.00 0.00 99 1013.6
20210922103100 73 0 0.0 0.0 0.00 0.00 0.00 99 1013.5
20210922102554 72 0 0.0 0.0 0.00 0.00 0.00 99 1013.5
20210922102049 72 0 0.0 1.0 0.00 0.00 0.00 99 1013.4
20210922101657 72 0 0.0 1.0 0.00 0.00 0.00 99 1013.5
20210922101044 72 0 0.0 0.0 0.00 0.00 0.00 99 1013.5
20210922100546 72 0 0.0 0.0 0.00 0.00 0.00 99 1013.5
20210922100119 72 0 0.0 0.0 0.00 0.00 0.00 99 1013.5
20210922095554 72 0 0.0 0.0 0.00 0.00 0.00 99 1013.5
20210922095053 72 0 0.0 0.0 0.00 0.00 0.00 99 1013.5
20210922094656 73 0 0.0 0.0 0.00 0.00 0.00 98 1013.4
20210922094053 73 0 0.0 0.0 0.00 0.00 0.00 98 1013.3
20210922093603 73 0 0.0 0.0 0.00 0.00 0.00 98 1013.4
20210922093123 73 0 0.0 0.0 0.00 0.00 0.00 98 1013.3
20210922092547 73 0 0.0 0.0 0.00 0.00 0.00 98 1013.3
20210922092055 73 0 0.0 0.0 0.00 0.00 0.00 98 1013.4
20210922091636 73 0 0.0 1.0 0.00 0.00 0.00 98 1013.5
20210922091046 73 0 0.0 1.0 0.00 0.00 0.00 99 1013.5
20210922090554 73 0 0.0 0.0 0.00 0.00 0.00 98 1013.5
20210922090119 73 0 0.0 0.0 0.00 0.00 0.00 98 1013.5
20210922085546 73 0 0.0 0.0 0.00 0.00 0.00 98 1013.5
20210922085046 73 0 0.0 0.0 0.00 0.00 0.00 98 1013.4
20210922084624 73 0 0.0 0.0 0.00 0.00 0.00 98 1013.5
20210922084047 74 0 0.0 0.0 0.00 0.00 0.00 98 1013.5
20210922083556 74 0 0.0 0.0 0.00 0.00 0.00 98 1013.6
20210922083233 74 0 0.0 0.0 0.00 0.00 0.00 98 1013.6
20210922082544 74 0 0.0 0.0 0.00 0.00 0.00 98 1013.7
20210922082046 74 0 0.0 0.0 0.00 0.00 0.00 98 1013.7
20210922081558 74 0 0.0 0.0 0.00 0.00 0.00 99 1013.7
20210922081050 74 0 0.0 1.0 0.00 0.00 0.00 98 1013.7
20210922080605 74 0 0.0 1.0 0.00 0.00 0.00 99 1013.7
20210922080157 74 0 0.0 0.0 0.00 0.00 0.00 98 1013.7
20210922075546 74 0 0.0 0.0 0.00 0.06 0.00 98 1013.7
20210922075046 74 0 0.0 0.0 0.00 0.06 0.00 98 1013.8
20210922074754 74 0 0.0 0.0 0.00 0.06 0.00 98 1013.9
20210922074047 74 0 0.0 1.0 0.00 0.06 0.00 98 1014.0
20210922073546 74 0 0.0 1.0 0.00 0.06 0.00 98 1013.9
20210922073129 74 283 0.0 0.0 0.00 0.06 0.00 98 1013.9
20210922072546 74 0 0.0 0.0 0.00 0.06 0.00 98 1013.7
20210922072046 74 0 0.0 0.0 0.00 0.06 0.00 98 1013.7
20210922071629 74 0 0.0 0.0 0.00 0.06 0.00 98 1013.6
20210922071047 74 0 0.0 0.0 0.00 0.06 0.00 98 1013.6
20210922070604 74 0 0.0 1.0 0.00 0.06 0.00 98 1013.8
20210922070159 75 0 0.0 1.0 0.00 0.06 0.00 98 1013.9
20210922065553 75 0 0.0 1.0 0.00 0.09 0.00 98 1013.9
20210922065055 75 0 0.0 0.0 0.00 0.09 0.00 97 1014.0
20210922064654 75 0 0.0 0.0 0.00 0.09 0.00 97 1014.0
20210922064054 75 0 0.0 0.0 0.00 0.09 0.00 97 1014.0
20210922063548 75 0 0.0 0.0 0.00 0.09 0.00 97 1014.1
20210922063155 75 0 0.0 1.0 0.00 0.09 0.00 97 1014.2
20210922062547 75 0 0.0 1.0 0.00 0.09 0.00 97 1014.3
20210922062055 75 0 0.0 0.0 0.00 0.09 0.00 98 1014.3
20210922061659 75 0 0.0 0.0 0.00 0.09 0.00 98 1014.5
20210922061052 75 0 0.0 0.0 0.00 0.09 0.00 98 1014.6
20210922060553 75 0 0.0 0.0 0.00 0.09 0.00 97 1014.6
20210922060219 75 0 0.0 0.0 0.00 0.09 0.00 97 1014.6
20210922055546 76 0 0.0 0.0 0.00 0.18 0.00 97 1014.7
20210922055110 76 0 0.0 0.0 0.00 0.18 0.00 97 1014.8
20210922054728 76 0 0.0 0.0 0.00 0.18 0.00 98 1014.9
20210922054114 76 0 0.0 0.0 0.00 0.18 0.00 98 1015.0
20210922053552 76 0 0.0 0.0 0.00 0.18 0.00 98 1015.0
20210922053108 76 0 0.0 0.0 0.00 0.18 0.00 98 1015.1
20210922052545 76 0 0.0 1.0 0.00 0.18 0.00 98 1015.2
20210922052045 76 0 0.0 1.0 0.00 0.18 0.00 98 1015.0
20210922051657 76 0 0.0 1.0 0.00 0.18 0.00 98 1015.1
20210922051100 76 0 0.0 1.0 0.00 0.18 0.00 98 1015.2
20210922050545 76 0 0.0 0.0 0.00 0.18 0.00 97 1015.2
20210922050104 76 0 0.0 1.0 0.00 0.18 0.00 97 1015.2
20210922045546 76 0 0.0 1.0 0.00 0.40 0.18 97 1015.1
20210922045051 76 0 0.0 0.0 0.00 0.40 0.18 97 1015.1
20210922044630 76 0 0.0 0.0 0.00 0.40 0.18 98 1015.3
20210922044046 76 0 0.0 0.0 0.00 0.40 0.18 97 1015.4
20210922043600 76 0 0.0 0.0 0.00 0.40 0.18 97 1015.4
20210922043115 76 0 0.0 0.0 0.00 0.40 0.18 97 1015.4
20210922042543 76 0 0.0 0.0 0.00 0.40 0.18 97 1015.6
20210922042046 76 0 0.0 0.0 0.00 0.40 0.18 97 1015.7
20210922041622 76 0 0.0 0.0 0.00 0.40 0.18 97 1015.6
20210922041046 76 0 0.0 0.0 0.00 0.40 0.18 97 1015.6
20210922040558 77 0 0.0 0.0 0.00 0.40 0.18 97 1015.6
20210922040142 76 0 0.0 1.0 0.00 0.40 0.18 97 1015.6
20210922035554 76 0 0.0 1.0 0.00 0.40 0.18 97 1015.7
20210922035118 76 0 0.0 1.0 0.00 0.40 0.18 97 1015.8
20210922034704 76 0 0.0 0.0 0.00 0.40 0.18 97 1015.8
20210922034046 76 0 0.0 0.0 0.00 0.40 0.18 97 1015.8
20210922033547 76 0 0.0 0.0 0.00 0.40 0.18 97 1015.8
20210922033119 76 0 0.0 0.0 0.00 0.40 0.18 97 1015.7
20210922032555 76 0 0.0 0.0 0.00 0.40 0.18 96 1015.7
20210922032105 76 0 0.0 0.0 0.00 0.40 0.18 96 1015.8
20210922031714 76 0 0.0 0.0 0.00 0.40 0.18 96 1015.8
20210922031054 76 0 0.0 0.0 0.00 0.40 0.18 96 1015.8
20210922030546 76 0 0.0 0.0 0.00 0.40 0.18 95 1016.0
20210922030138 76 0 0.0 0.0 0.00 0.40 0.18 95 1016.0
20210922025547 76 0 0.0 0.0 0.00 0.40 0.18 95 1016.0
20210922025052 76 0 0.0 0.0 0.00 0.40 0.18 95 1016.0
20210922024627 76 0 0.0 0.0 0.00 0.40 0.18 95 1016.0
20210922024046 76 0 0.0 0.0 0.00 0.40 0.18 95 1016.2
20210922023601 76 0 0.0 0.0 0.00 0.40 0.18 95 1016.3
20210922023219 76 0 0.0 0.0 0.00 0.40 0.18 95 1016.3
20210922022547 76 0 0.0 0.0 0.00 0.40 0.18 94 1016.3
20210922022046 76 0 0.0 0.0 0.00 0.40 0.18 94 1016.2
20210922021716 76 0 0.0 0.0 0.00 0.40 0.18 94 1016.2
20210922021047 76 0 0.0 0.0 0.00 0.40 0.18 93 1016.2
20210922020548 76 0 0.0 0.0 0.00 0.40 0.18 93 1016.2
20210922020143 76 0 0.0 0.0 0.00 0.40 0.18 93 1016.2
20210922015548 76 0 0.0 0.0 0.00 0.40 0.18 93 1016.2
20210922015100 76 0 0.0 0.0 0.00 0.40 0.18 93 1016.2
20210922014634 76 0 0.0 0.0 0.00 0.40 0.18 92 1016.1
20210922014046 76 0 0.0 0.0 0.00 0.40 0.18 92 1016.1
20210922013545 76 0 0.0 0.0 0.00 0.40 0.18 92 1016.1
20210922013123 76 0 0.0 0.0 0.00 0.40 0.18 93 1016.1
20210922012605 76 0 0.0 0.0 0.00 0.40 0.18 93 1016.2
20210922012108 76 0 0.0 0.0 0.00 0.40 0.18 94 1016.1
20210922011720 76 0 0.0 0.0 0.00 0.40 0.18 92 1016.1
20210922011142 76 0 0.0 0.0 0.00 0.40 0.18 92 1016.0
20210922010546 76 0 0.0 0.0 0.00 0.40 0.18 92 1015.9
20210922010147 76 0 0.0 0.0 0.00 0.40 0.18 92 1015.9
20210922005548 76 0 0.0 0.0 0.00 0.40 0.18 92 1015.7
20210922005047 76 0 0.0 0.0 0.00 0.40 0.18 92 1015.6
20210922004632 76 0 0.0 1.0 0.00 0.40 0.18 92 1015.5
20210922004047 76 0 0.0 1.0 0.00 0.40 0.18 92 1015.5
20210922003547 76 276 0.0 2.0 0.00 0.40 0.18 92 1015.4
20210922003129 76 0 0.0 2.0 0.00 0.40 0.18 92 1015.4
20210922002559 76 351 0.0 1.0 0.00 0.40 0.18 91 1015.3
20210922002049 76 20 0.0 1.0 0.00 0.40 0.18 90 1015.3
20210922001731 76 19 0.0 1.0 0.00 0.40 0.18 90 1015.3
20210922001047 76 0 0.0 1.0 0.00 0.40 0.18 90 1015.3
20210922000547 76 0 0.0 1.0 0.00 0.40 0.18 90 1015.3
20210922000110 77 0 0.0 1.0 0.00 0.40 0.18 89 1015.4
20210921235603 77 20 0.0 1.0 0.00 0.40 0.18 88 1015.4
20210921235045 77 0 0.0 1.0 0.00 0.40 0.18 86 1015.4
20210921234635 77 0 0.0 1.0 0.00 0.40 0.18 86 1015.4
20210921234054 77 0 0.0 1.0 0.00 0.40 0.18 86 1015.4
20210921233548 78 122 0.0 0.0 0.00 0.40 0.18 85 1015.2
20210921233133 78 0 0.0 1.0 0.00 0.40 0.18 86 1015.2
20210921232548 78 0 0.0 1.0 0.00 0.40 0.18 86 1015.1
20210921232113 79 0 0.0 5.0 0.00 0.40 0.18 84 1015.1
20210921231618 79 154 1.0 5.0 0.00 0.40 0.18 83 1014.9
20210921231045 79 137 0.0 1.0 0.00 0.40 0.18 82 1014.9
20210921230547 79 0 0.0 1.0 0.00 0.40 0.18 82 1014.9
20210921230152 79 0 0.0 1.0 0.00 0.40 0.18 81 1015.1
20210921225545 79 0 0.0 1.0 0.00 0.40 0.18 81 1015.1
20210921225047 79 0 0.0 1.0 0.00 0.40 0.18 82 1015.1
20210921224648 79 0 0.0 4.0 0.00 0.40 0.18 82 1015.2
20210921224047 79 0 1.0 4.0 0.00 0.40 0.18 82 1015.1
20210921223548 80 111 1.0 3.0 0.00 0.40 0.18 80 1015.1
20210921223059 80 89 1.0 3.0 0.00 0.40 0.18 80 1015.1
20210921222544 81 72 0.0 2.0 0.00 0.40 0.18 79 1015.0
20210921222059 82 49 1.0 6.0 0.00 0.40 0.18 78 1015.0
20210921221643 82 0 2.0 6.0 0.00 0.40 0.18 77 1015.0
20210921221049 84 136 1.0 13.0 0.00 0.40 0.18 74 1015.0
20210921220616 85 112 2.0 13.0 0.00 0.40 0.18 73 1015.0
20210921220144 87 99 1.0 6.0 0.00 0.40 0.18 70 1015.1
20210921215544 88 70 2.0 6.0 0.00 0.40 0.18 73 1014.8
20210921215044 88 146 2.0 5.0 0.00 0.40 0.18 74 1014.7
20210921214638 88 148 1.0 7.0 0.00 0.40 0.18 75 1014.7
20210921214044 88 237 2.0 7.0 0.00 0.40 0.18 75 1014.6
20210921213544 88 92 2.0 7.0 0.00 0.40 0.18 75 1014.5
20210921213115 88 150 2.0 5.0 0.00 0.40 0.18 75 1014.5
20210921212545 88 261 1.0 7.0 0.00 0.40 0.18 74 1014.6
20210921212115 88 58 2.0 7.0 0.00 0.40 0.18 74 1014.6
20210921211616 88 221 2.0 8.0 0.00 0.40 0.18 75 1014.5
20210921211047 88 210 3.0 8.0 0.00 0.40 0.18 74 1014.6
20210921210548 88 233 2.0 6.0 0.00 0.40 0.18 73 1014.7
20210921210151 89 231 2.0 6.0 0.00 0.40 0.18 73 1014.7
20210921205547 89 120 1.0 5.0 0.00 0.40 0.18 72 1014.6
20210921205048 89 250 2.0 6.0 0.00 0.40 0.18 71 1014.5
20210921204659 89 281 2.0 6.0 0.00 0.40 0.18 72 1014.7
20210921204106 90 131 2.0 6.0 0.00 0.40 0.18 71 1014.7
20210921203546 90 272 1.0 7.0 0.00 0.40 0.18 70 1014.6
20210921203133 90 266 2.0 7.0 0.00 0.40 0.18 70 1014.7
20210921202554 90 188 1.0 7.0 0.00 0.40 0.18 69 1014.7
20210921202048 90 176 2.0 7.0 0.00 0.40 0.18 67 1014.9
20210921201606 90 296 2.0 5.0 0.00 0.40 0.18 67 1014.9
20210921201047 90 227 1.0 5.0 0.00 0.40 0.18 66 1014.9
20210921200548 90 175 1.0 5.0 0.00 0.40 0.18 68 1015.0
20210921200107 90 165 2.0 5.0 0.00 0.40 0.18 68 1015.0
20210921195610 90 271 2.0 5.0 0.00 0.40 0.18 67 1015.1
20210921195047 90 218 1.0 5.0 0.00 0.40 0.18 67 1015.2
20210921194629 90 241 1.0 4.0 0.00 0.40 0.18 66 1015.2
20210921194048 89 290 2.0 8.0 0.00 0.40 0.18 67 1015.2
20210921193545 89 248 2.0 8.0 0.00 0.40 0.18 69 1015.2
20210921193108 89 174 2.0 7.0 0.00 0.40 0.18 70 1015.2
20210921192545 89 131 2.0 7.0 0.00 0.40 0.18 67 1015.3
20210921192051 90 110 1.0 5.0 0.00 0.40 0.18 67 1015.4
20210921191741 90 129 1.0 4.0 0.00 0.40 0.18 69 1015.5
20210921191044 90 285 1.0 5.0 0.00 0.40 0.18 69 1015.4
20210921190549 90 136 2.0 6.0 0.00 0.40 0.18 69 1015.6
20210921190128 90 233 2.0 6.0 0.00 0.40 0.18 68 1015.6
20210921185545 90 121 1.0 5.0 0.00 0.40 0.18 70 1015.5
20210921185045 90 139 1.0 3.0 0.00 0.40 0.18 67 1015.7
20210921184649 90 176 1.0 3.0 0.00 0.40 0.18 68 1015.7
20210921184048 89 213 0.0 5.0 0.00 0.40 0.18 71 1015.9
20210921183600 89 96 2.0 6.0 0.00 0.40 0.18 71 1016.0
20210921183058 89 150 2.0 6.0 0.00 0.40 0.18 72 1016.1
20210921182548 89 124 2.0 5.0 0.00 0.40 0.18 70 1016.1
20210921182058 90 157 1.0 4.0 0.00 0.40 0.18 69 1016.2
20210921181632 90 134 1.0 2.0 0.00 0.40 0.18 69 1016.2
20210921181135 88 301 0.0 4.0 0.00 0.40 0.18 68 1016.4
20210921180544 88 169 2.0 4.0 0.00 0.40 0.18 72 1016.6
20210921180154 87 214 0.0 3.0 0.00 0.40 0.18 74 1016.7
20210921175544 87 257 1.0 3.0 0.00 0.40 0.18 70 1016.8
20210921175055 88 198 1.0 3.0 0.00 0.40 0.18 71 1017.0
20210921174623 88 120 1.0 3.0 0.00 0.40 0.18 70 1017.0
20210921174048 88 209 1.0 5.0 0.00 0.40 0.18 74 1017.2
20210921173546 88 144 2.0 5.0 0.00 0.40 0.18 70 1017.3
20210921173111 89 270 1.0 4.0 0.00 0.40 0.18 69 1017.4
20210921172554 88 162 1.0 5.0 0.00 0.40 0.18 73 1017.5
20210921172057 88 135 1.0 5.0 0.00 0.40 0.18 71 1017.6
20210921171604 88 290 2.0 5.0 0.00 0.40 0.18 73 1017.7
20210921171116 88 161 1.0 3.0 0.00 0.40 0.18 72 1017.7
20210921170547 87 164 1.0 3.0 0.00 0.40 0.18 75 1017.8
20210921170301 87 125 0.0 2.0 0.00 0.40 0.18 75 1017.7
20210921165552 87 0 0.0 3.0 0.00 0.40 0.18 76 1017.6
20210921165048 87 248 0.0 3.0 0.00 0.40 0.18 74 1017.7
20210921164640 88 259 0.0 3.0 0.00 0.40 0.18 73 1017.8
20210921164047 87 99 0.0 2.0 0.00 0.40 0.18 75 1017.7
20210921163557 87 236 0.0 4.0 0.00 0.40 0.18 75 1017.7
20210921163211 87 288 0.0 4.0 0.00 0.40 0.18 74 1017.7
20210921162545 88 229 1.0 2.0 0.00 0.40 0.18 72 1017.7
20210921162044 87 259 0.0 4.0 0.00 0.40 0.18 81 1017.7
20210921161602 87 214 1.0 4.0 0.00 0.40 0.18 75 1017.7
20210921161044 86 105 0.0 3.0 0.00 0.40 0.18 76 1017.9